Weather Roundup
Issued by NWS

Home | Current Version | Previous Version | Graphics & Text | Print | Product List | Glossary Off
Versions: 1 2 3 4 5 6 7 8 9 10 11 12 13 14 15 16 17 18 19 20 21 22 23 24 25 26 27 28 29 30 31 32 33 34 35 36 37 38 39 40 41 42 43 44 45 46 47 48 49 50

029
NZUS93 KARX 172159
HRRWXR

CURRENT HOURLY OBSERVATIONS ACROSS
MUCH OF THE UPPER MISSISSIPPI VALLEY
NATIONAL WEATHER SERVICE LA CROSSE WI
400 PM CST TUE JAN 17 2017


...SOUTHEAST MINNESOTA...


CITY           SKY/WX    TMP DP  RH WIND       PRES   REMARKS
ROCHESTER      FOG       32  32 100 NW12      29.96R VSB 3/4 WCI  23
ROCHESTER/MAYO CLOUDY    33  33 100 NW10      29.97R WCI  24
WINONA         CLOUDY    34  34 100 NW7       29.96R FOG     WCI  28
AUSTIN         FOG       34  30  86 NW8       29.98R VSB 1   WCI  27
ALBERT LEA     FOG       30  30 100 W5        29.99R VSB 1/2 WCI  25
DODGE CENTER   CLOUDY    32  30  93 CALM      29.97R FOG
PRESTON        CLOUDY    32  31  96 NW13      29.95R FOG     WCI  22
OWATONNA       LGT SNOW  32  30  93 W7        29.99R VSB 3/4 WCI  26
FARIBAULT      FOG       34  32  93 W3        29.99R VSB 1/2
$$

...ELSEWHERE IN MINNESOTA...


CITY           SKY/WX    TMP DP  RH WIND       PRES   REMARKS
MINNEAPOLIS    CLOUDY    35  30  82 W6        29.98S WCI  30
INTNL FALLS    NOT AVBL
DULUTH         NOT AVBL
RED WING       PTCLDY    36  30  80 NW6       29.97R HAZE    WCI  31
REDWOOD FALLS  CLEAR     28  20  71 W3        29.99S
MANKATO        PTCLDY    30  28  93 W6        30.00R FOG     WCI  24
WORTHINGTON    NOT AVBL
FAIRMONT       FOG       30  30 100 W9        30.01S VSB 1/2 WCI  22
$$

...SOUTHWEST WISCONSIN...


CITY           SKY/WX    TMP DP  RH WIND       PRES   REMARKS
LA CROSSE      MIX PCPN  36  33  89 NW9       29.94R FOG     WCI  29
PRAIRIE DU CHI CLOUDY    34  33  96 W5        29.93R WCI  30
BOSCOBEL       LGT RAIN  36  33  89 SW3       29.94R FOG
LONE ROCK      CLOUDY    36  34  93 W6        29.92R FOG     WCI  31
PLATTEVILLE    CLOUDY    34  34 100 W9        29.92R WCI  26
FORT MC COY    CLOUDY    33  33 100 W3        29.92R
MAUSTON-NEW LI FOG       34  34  99 NW7       29.88S VSB 3/4 WCI  28
VIROQUA        CLOUDY    33  33 100 W7        29.90R WCI  27
WIS DELLS      LGT RAIN  33  33  99 W3        29.89R
$$

...ELSEWHERE IN WISCONSIN...


CITY           SKY/WX    TMP DP  RH WIND       PRES   REMARKS
MILWAUKEE      CLOUDY    38  34  85 W8        29.88R WCI  32
MADISON        CLOUDY    34  33  96 W6        29.90R WCI  29
GREEN BAY      FOG       35  35 100 N8        29.88R VSB 1   WCI  29
EAU CLAIRE     CLOUDY    37  34  87 W5        29.93R WCI  34
BLACK RVR FLS  CLOUDY    36  36 100 NW6       29.92R WCI  31
MEDFORD        CLOUDY    37  33  84 CALM      29.87R
WAUSAU         CLOUDY    36  34  92 CALM      29.87R
WIS RAPIDS     CLOUDY    35  34  96 NW6       29.90R FOG     WCI  30
MARSHFIELD     CLOUDY    34  32  92 NW6       29.88R FOG     WCI  29
RICE LAKE      CLEAR     38  32  77 W3        29.94R
$$

...NORTHEAST IOWA...


CITY           SKY/WX    TMP DP  RH WIND       PRES   REMARKS
WATERLOO       CLOUDY    33  31  92 NW10      29.99R FOG     WCI  25
DUBUQUE        CLOUDY    33  32  96 W14       29.93R FOG     WCI  23
DECORAH        LGT SNOW  34  34 100 VRB6G12   29.94R WCI  29
MASON CITY     CLOUDY    32  31  96 NW12      30.00S FOG     WCI  23
CHARLES CITY   FOG       32  32 100 NW13      29.98R VSB 1/4 WCI  22
OELWEIN        FOG       32  32 100 W15       29.97R VSB 1/2 WCI  22
$$

...ELSEWHERE IN IOWA...


CITY           SKY/WX    TMP DP  RH WIND       PRES   REMARKS
DES MOINES     CLOUDY    36  33  89 W9        30.05R WCI  29
IOWA CITY      CLOUDY    36  34  92 W10       30.02R FOG     WCI  28
FORT DODGE     CLOUDY    34  28  80 MISG      30.04R
MARSHALLTOWN   CLOUDY    33  32  96 W15       30.01R FOG     WCI  23
CEDAR RAPIDS   CLOUDY    33  32  96 W14       29.98R FOG     WCI  23
$$

...NORTHERN ILLINOIS...


CITY           SKY/WX    TMP DP  RH WIND       PRES   REMARKS
CHICAGO-OHARE  CLOUDY    37  35  92 W13       29.90R WCI  29
CHICAGO-MIDWAY DRIZZLE   36  35  96 W12       29.91R WCI  28
MOLINE         CLOUDY    36  34  92 W10       29.98R FOG     WCI  28
ROCKFORD       CLOUDY    36  33  89 W10       29.94R FOG     WCI  28
PEORIA         CLOUDY    37  35  92 W13       30.00R WCI  29
$$

NOTE: "FAIR" INDICATES FEW OR NO CLOUDS BELOW 12,000 FEET WITH NO
SIGNIFICANT WEATHER AND/OR OBSTRUCTIONS TO VISIBILITY. WIND
SPEEDS ARE IN MILES-PER-HOUR.




USA.gov is the U.S. government's official web portal to all federal, state and local government web resources and services.